Weather History for KSOA - March, 2013

Change the Weather History Date:

Monday, March 11, 2013

  Actual Average (KOZA) Record (KOZA)
Temperature  
Mean Temperature 48 °F -  
Max Temperature 71 °F 69 °F - (-1)
Min Temperature 26 °F 43 °F - (-1)
Degree Days  
Heating Degree Days 16    
Moisture  
Dew Point 15 °F    
Average Humidity 30    
Maximum Humidity 51    
Minimum Humidity 13    
Precipitation  
Precipitation 0.00 in - - ()
Sea Level Pressure  
Sea Level Pressure 30.15 in    
Wind  
Wind Speed 2 mph (NNW)    
Max Wind Speed 9 mph    
Max Gust Speed 18 mph    
Visibility 10 miles    
Events      
Averages and records for this station are not official NWS values.
T = Trace of Precipitation, MM = Missing Value Source: NWS Daily Summary

Daily Weather History Graph

Daily Weather History Graph

Search for Another Location

Airport or City:

Trip Planner

Search our weather history database for the weather conditions in past years. The results will help you decide how hot, cold, wet, or windy it might be!

Date:

Astronomy

Mar. 11, 2013 Rise Set
Actual Time 7:56 AM CDT 7:48 PM CDT
Civil Twilight 7:32 AM CDT 8:12 PM CDT
Nautical Twilight 7:05 AM CDT 8:40 PM CDT
Astronomical Twilight 6:37 AM CDT 9:08 PM CDT
Moon 7:33 AM CDT (3/11) 7:58 PM CDT (3/11)
Length of Visible Light 12h 39m
Length of Day
11h 51m
Waning Crescent, 0% of the Moon is Illuminated
Mar 11
Waning Crescent
Mar 11
New
Mar 19
First Quarter
Mar 27
Full
Apr 2
Last Quarter

Hourly Weather History & Observations

Time (CDT) Temp. Windchill Dew Point Humidity Pressure Visibility Wind Dir Wind Speed Gust Speed Precip Events Conditions
12:15 AM 42.8 °F 41.1 °F 14.0 °F 31% 30.20 in 10.0 mi South 3.5 mph - N/A   Clear
12:35 AM 39.2 °F - 14.0 °F 36% 30.20 in 10.0 mi Calm Calm - N/A   Clear
12:55 AM 39.2 °F - 12.2 °F 33% 30.21 in 10.0 mi Calm Calm - N/A   Clear
1:15 AM 37.4 °F - 12.2 °F 36% 30.21 in 10.0 mi Calm Calm - N/A   Clear
1:35 AM 35.6 °F - 12.2 °F 38% 30.21 in 10.0 mi Calm Calm - N/A   Clear
1:55 AM 33.8 °F - 12.2 °F 41% 30.21 in 10.0 mi Calm Calm - N/A   Clear
2:15 AM 33.8 °F - 12.2 °F 41% 30.21 in 10.0 mi Calm Calm - N/A   Clear
2:35 AM 32.0 °F - 12.2 °F 44% 30.20 in 10.0 mi Calm Calm - N/A   Clear
2:55 AM 32.0 °F 28.7 °F 12.2 °F 44% 30.20 in 10.0 mi NNE 3.5 mph - N/A   Clear
3:15 AM 32.0 °F - 10.4 °F 41% 30.19 in 10.0 mi Calm Calm - N/A   Clear
3:35 AM 32.0 °F 27.5 °F 10.4 °F 41% 30.19 in 10.0 mi NNE 4.6 mph - N/A   Clear
3:55 AM 30.2 °F 26.7 °F 10.4 °F 44% 30.19 in 10.0 mi NE 3.5 mph - N/A   Clear
4:15 AM 30.2 °F - 10.4 °F 44% 30.18 in 10.0 mi Calm Calm - N/A   Clear
4:35 AM 30.2 °F - 10.4 °F 44% 30.17 in 10.0 mi Calm Calm - N/A   Clear
4:55 AM 30.2 °F - 12.2 °F 47% 30.17 in 10.0 mi Calm Calm - N/A   Clear
5:15 AM 30.2 °F - 10.4 °F 44% 30.17 in 10.0 mi Calm Calm - N/A   Clear
5:35 AM 28.4 °F - 12.2 °F 51% 30.17 in 10.0 mi Calm Calm - N/A   Clear
5:55 AM 28.4 °F 23.3 °F 10.4 °F 47% 30.18 in 10.0 mi North 4.6 mph - N/A   Clear
6:15 AM 30.2 °F 25.4 °F 10.4 °F 44% 30.19 in 10.0 mi NNE 4.6 mph - N/A   Clear
6:35 AM 30.2 °F 25.4 °F 12.2 °F 47% 30.19 in 10.0 mi NNE 4.6 mph - N/A   Clear
6:55 AM 30.2 °F 26.7 °F 12.2 °F 47% 30.20 in 10.0 mi NNE 3.5 mph - N/A   Clear
7:15 AM 30.2 °F - 12.2 °F 47% 30.20 in 10.0 mi Calm Calm - N/A   Clear
7:35 AM 28.4 °F - 12.2 °F 51% 30.20 in 10.0 mi Calm Calm - N/A   Clear
7:55 AM 28.4 °F - 10.4 °F 47% 30.21 in 10.0 mi Calm Calm - N/A   Clear
8:15 AM 26.6 °F 22.6 °F 10.4 °F 51% 30.21 in 9.0 mi North 3.5 mph - N/A   Clear
8:35 AM 28.4 °F 24.6 °F 12.2 °F 51% 30.22 in 10.0 mi NNE 3.5 mph - N/A   Clear
8:55 AM 32.0 °F 28.7 °F 12.2 °F 44% 30.22 in 10.0 mi NNE 3.5 mph - N/A   Clear
9:15 AM 33.8 °F 29.6 °F 14.0 °F 44% 30.23 in 9.0 mi NE 4.6 mph - N/A   Clear
9:35 AM 37.4 °F 34.9 °F 14.0 °F 38% 30.23 in 9.0 mi NNE 3.5 mph - N/A   Clear
9:55 AM 42.8 °F 40.1 °F 14.0 °F 31% 30.23 in 9.0 mi NE 4.6 mph - N/A   Clear
10:15 AM 44.6 °F 42.2 °F 12.2 °F 27% 30.23 in 10.0 mi NE 4.6 mph - N/A   Clear
10:35 AM 48.2 °F - 10.4 °F 22% 30.22 in 10.0 mi ENE 3.5 mph - N/A   Clear
10:55 AM 51.8 °F - 10.4 °F 19% 30.22 in 10.0 mi Calm Calm - N/A   Clear
11:15 AM 51.8 °F - 10.4 °F 19% 30.22 in 9.0 mi Calm Calm - N/A   Clear
11:35 AM 53.6 °F - 12.2 °F 19% 30.22 in 10.0 mi ESE 3.5 mph - N/A   Clear
11:55 AM 55.4 °F - 12.2 °F 18% 30.21 in 10.0 mi WNW 4.6 mph - N/A   Clear
12:15 PM 59.0 °F - 14.0 °F 17% 30.20 in 10.0 mi West 5.8 mph - N/A   Clear
12:35 PM 60.8 °F - 15.8 °F 17% 30.20 in 10.0 mi NW 8.1 mph - N/A   Clear
12:55 PM 60.8 °F - 15.8 °F 17% 30.19 in 10.0 mi West 9.2 mph - N/A   Clear
1:15 PM 62.6 °F - 17.6 °F 18% 30.18 in 10.0 mi Calm Calm - N/A   Clear
1:35 PM 64.4 °F - 17.6 °F 16% 30.17 in 10.0 mi WNW 9.2 mph - N/A   Clear
1:55 PM 64.4 °F - 17.6 °F 16% 30.15 in 10.0 mi NW 5.8 mph - N/A   Clear
2:15 PM 66.2 °F - 19.4 °F 17% 30.13 in 10.0 mi WSW 5.8 mph - N/A   Clear
2:35 PM 66.2 °F - 19.4 °F 17% 30.12 in 10.0 mi West 5.8 mph 18.4 mph N/A   Clear
2:55 PM 69.8 °F - 19.4 °F 15% 30.10 in 10.0 mi NNW 4.6 mph - N/A   Clear
3:15 PM 69.8 °F - 19.4 °F 15% 30.09 in 10.0 mi NNW 4.6 mph - N/A   Clear
3:35 PM 69.8 °F - 17.6 °F 14% 30.08 in 10.0 mi WNW 6.9 mph - N/A   Clear
3:55 PM 69.8 °F - 17.6 °F 14% 30.08 in 10.0 mi NW 6.9 mph - N/A   Clear
4:15 PM 69.8 °F - 19.4 °F 15% 30.06 in 10.0 mi Calm Calm - N/A   Clear
4:35 PM 69.8 °F - 17.6 °F 14% 30.06 in 10.0 mi NNW 8.1 mph - N/A   Clear
4:55 PM 71.6 °F - 17.6 °F 13% 30.05 in 10.0 mi North 6.9 mph - N/A   Clear
5:15 PM 71.6 °F - 17.6 °F 13% 30.05 in 10.0 mi SW 4.6 mph - N/A   Clear
5:35 PM 71.6 °F - 19.4 °F 14% 30.04 in 10.0 mi SSW 8.1 mph - N/A   Clear
6:15 PM 71.6 °F - 17.6 °F 13% 30.04 in 10.0 mi West 8.1 mph - N/A   Clear
6:35 PM 71.6 °F - 17.6 °F 13% 30.04 in 10.0 mi WSW 6.9 mph - N/A   Clear
6:55 PM 69.8 °F - 17.6 °F 14% 30.04 in 10.0 mi WSW 6.9 mph - N/A   Clear
7:15 PM 69.8 °F - 17.6 °F 14% 30.04 in 10.0 mi Calm Calm - N/A   Clear
7:35 PM 68.0 °F - 17.6 °F 15% 30.04 in 10.0 mi Calm Calm - N/A   Clear
7:55 PM 64.4 °F - 17.6 °F 16% 30.05 in 10.0 mi Calm Calm - N/A   Clear
8:15 PM 62.6 °F - 17.6 °F 18% 30.05 in 10.0 mi Calm Calm - N/A   Clear
8:35 PM 60.8 °F - 17.6 °F 19% 30.05 in 10.0 mi Calm Calm - N/A   Clear
8:55 PM 55.4 °F - 19.4 °F 25% 30.06 in 10.0 mi Calm Calm - N/A   Clear
9:15 PM 55.4 °F - 19.4 °F 25% 30.06 in 10.0 mi Calm Calm - N/A   Clear
9:35 PM 51.8 °F - 19.4 °F 28% 30.07 in 10.0 mi Calm Calm - N/A   Clear
9:55 PM 50.0 °F - 17.6 °F 28% 30.07 in 10.0 mi Calm Calm - N/A   Clear
10:15 PM 48.2 °F - 17.6 °F 30% 30.08 in 10.0 mi Calm Calm - N/A   Clear
10:35 PM 46.4 °F - 17.6 °F 32% 30.09 in 10.0 mi Calm Calm - N/A   Clear
10:55 PM 44.6 °F - 17.6 °F 34% 30.09 in 10.0 mi Calm Calm - N/A   Clear
11:15 PM 44.6 °F - 17.6 °F 34% 30.10 in 10.0 mi Calm Calm - N/A   Clear
11:35 PM 42.8 °F - 17.6 °F 36% 30.10 in 10.0 mi Calm Calm - N/A   Clear
11:55 PM 41.0 °F - 15.8 °F 36% 30.09 in 10.0 mi Calm Calm - N/A   Clear